Location: Colebrook
(42.0017°N, 73.0973°W)
Time: 16:20:37
(UTC-05:00)

Vanguard 2 - Pass Details

Date: 02 November 2021
Orbit: 554 x 2936 km, 32.9° (Epoch: 04 December)

Event Time Altitude Azimuth Distance (km) Brightness Sun altitude
Rises 19:38:50 0° 185° (S) 6,292 12.3 -21.6°
Reaches altitude 10° 19:45:28 10° 167° (SSE) 5,576 11.8 -22.8°
Maximum altitude 19:54:20 16° 135° (SE) 5,219 11.3 -24.5°
Enters shadow 19:55:23 16° 131° (SE) 5,231 11.3 -24.7°
